"startDT [UTC]","vpos","CH4 [ppm]","stdev(CH4) [ppm]","CO2 [ppm]","stdev(CO2) [ppm]","H2O [ppm]","stdev(H2O)","p_LGR [torr]","T_LGR [C]","mt1_LGR [us]","mt2_LGR [us]","T_ECpre [C]","T_EC1 [C]","T_EC2 [C]","p_inlet [hPa]","p_in [hPa]","p_out [hPa]","T_inlet [C]","RH_inlet [%]","dwpt_inlet [C]","T_vent [C]","RH_vent [%]","dwpt_vent [C]","flow_vent [l min-1]","flow_inlet [l min-1]","dwpt_sample [C]","T_room [C]"
2013-05-13 00:00:00,0.0,1.9244,0.0008,407.96,0.44,348.2,31.7,138.04,31.87,24.66,36.42,0.04,-272.76,-272.77,-44,564,-936,24.8,10.8,-7.9,24.6,11.3,-7.4,5.73,2.35,-21.5,29.5
2013-05-13 00:01:00,0.0,1.9243,0.0008,407.84,0.39,353.5,29.0,138.04,31.87,24.66,36.42,0.04,-272.76,-272.76,-44,564,-936,24.8,10.8,-7.8,24.7,11.3,-7.4,5.73,2.33,-21.5,29.5
2013-05-13 00:02:00,0.0,1.9243,0.0009,407.98,0.40,355.5,31.1,138.04,31.86,24.66,36.41,0.04,-272.76,-272.76,-44,564,-936,24.9,10.8,-7.8,24.7,11.3,-7.4,5.73,2.37,-21.5,29.5
2013-05-13 00:03:00,0.0,1.9242,0.0009,407.81,0.41,358.9,29.2,138.04,31.86,24.66,36.42,0.04,-272.76,-272.77,-44,564,-936,24.8,10.8,-7.8,24.7,11.3,-7.3,5.73,2.42,-21.4,29.6
2013-05-13 00:04:00,0.0,1.9242,0.0009,407.88,0.40,355.7,28.9,138.04,31.85,24.66,36.42,0.04,-272.76,-272.76,-43,564,-937,24.9,10.9,-7.8,24.7,11.3,-7.3,5.73,2.41,-21.4,29.5
2013-05-13 00:05:00,0.0,1.9242,0.0009,407.95,0.35,351.3,33.1,138.05,31.85,24.67,36.41,0.04,-272.76,-272.76,-44,564,-937,24.9,10.9,-7.7,24.7,11.4,-7.3,5.73,2.35,-21.4,29.6
2013-05-13 00:06:00,0.0,1.9243,0.0009,407.72,0.44,360.0,28.5,138.05,31.84,24.66,36.42,0.04,-272.76,-272.76,-44,565,-937,24.9,10.9,-7.7,24.7,11.4,-7.3,5.73,2.33,-21.4,29.6
2013-05-13 00:07:00,0.0,1.9239,0.0008,407.78,0.44,359.0,28.4,138.05,31.83,24.67,36.42,0.04,-272.76,-272.76,-44,565,-937,24.9,10.8,-7.8,24.8,11.3,-7.4,5.73,2.39,-21.4,29.6
2013-05-13 00:08:00,0.0,1.9240,0.0009,407.82,0.39,352.2,31.4,138.05,31.83,24.67,36.42,0.04,-272.76,-272.76,-44,565,-937,24.9,10.8,-7.8,24.7,11.3,-7.4,5.73,2.43,-21.4,29.6
2013-05-13 00:09:00,0.0,1.9239,0.0009,407.76,0.42,357.0,33.7,138.05,31.82,24.67,36.42,0.04,-272.76,-272.76,-44,565,-936,24.9,10.7,-7.9,24.8,11.2,-7.4,5.73,2.39,-21.4,29.6
2013-05-13 00:10:00,0.0,1.9243,0.0010,407.73,0.41,354.9,31.9,138.05,31.82,24.66,36.42,0.04,-272.76,-272.76,-44,565,-936,24.9,10.8,-7.9,24.8,11.2,-7.4,5.73,2.33,-21.4,29.6
2013-05-13 00:11:00,0.0,1.9245,0.0009,407.71,0.39,358.2,30.8,138.05,31.82,24.66,36.43,0.04,-272.76,-272.76,-44,565,-936,24.9,10.7,-7.9,24.8,11.2,-7.4,5.73,2.34,-21.4,29.6
2013-05-13 00:12:00,0.0,1.9242,0.0009,407.89,0.39,358.1,23.8,138.05,31.81,24.67,36.42,0.04,-272.76,-272.76,-44,565,-936,25.0,10.8,-7.8,24.8,11.3,-7.4,5.73,2.39,-21.3,29.6
2013-05-13 00:13:00,0.0,1.9241,0.0012,407.80,0.37,360.9,31.4,138.05,31.81,24.67,36.42,0.04,-272.76,-272.77,-44,565,-936,25.0,10.8,-7.8,24.8,11.3,-7.3,5.73,2.42,-21.3,29.6
2013-05-13 00:14:00,0.0,1.9248,0.0010,407.80,0.40,356.4,32.7,138.05,31.80,24.66,36.42,0.04,-272.76,-272.76,-44,565,-936,24.9,10.9,-7.7,24.8,11.3,-7.2,5.73,2.39,-21.3,29.6
2013-05-13 00:15:00,0.0,1.9245,0.0009,407.83,0.40,369.3,29.3,138.05,31.80,24.67,36.42,0.04,-272.76,-272.76,-44,565,-936,25.0,10.8,-7.8,24.9,11.3,-7.3,5.73,2.35,-21.3,29.7
2013-05-13 00:16:00,0.0,1.9244,0.0009,407.79,0.39,360.0,29.2,138.05,31.79,24.67,36.42,0.04,-272.76,-272.77,-44,565,-937,25.0,10.9,-7.7,24.9,11.4,-7.2,5.73,2.33,-21.3,29.7
2013-05-13 00:17:00,0.0,1.9244,0.0009,407.73,0.41,368.0,31.8,138.05,31.78,24.66,36.42,0.04,-272.76,-272.76,-44,565,-937,25.0,11.0,-7.5,24.9,11.5,-7.1,5.73,2.37,-21.3,29.7
2013-05-13 00:18:00,0.0,1.9243,0.0010,407.75,0.39,370.5,34.6,138.05,31.78,24.66,36.42,0.04,-272.76,-272.76,-44,565,-937,25.0,10.9,-7.6,24.9,11.4,-7.1,5.73,2.42,-21.3,29.7
2013-05-13 00:19:00,0.0,1.9243,0.0010,407.70,0.49,359.7,25.9,138.05,31.77,24.66,36.43,0.04,-272.76,-272.76,-44,565,-937,25.0,10.9,-7.6,24.9,11.4,-7.1,5.73,2.42,-21.2,29.7
2013-05-13 00:20:00,0.0,1.9243,0.0009,407.61,0.39,364.0,27.6,138.05,31.76,24.67,36.42,0.04,-272.76,-272.76,-44,566,-937,25.0,11.0,-7.5,24.9,11.4,-7.1,5.73,2.38,-21.2,29.7
2013-05-13 00:21:00,0.0,1.9241,0.0008,407.61,0.41,361.8,31.3,138.05,31.76,24.66,36.43,0.04,-272.76,-272.76,-44,566,-937,25.1,10.9,-7.6,24.9,11.3,-7.2,5.73,2.34,-21.2,29.7
2013-05-13 00:22:00,0.0,1.9238,0.0008,407.56,0.35,369.4,31.1,138.05,31.75,24.67,36.43,0.04,-272.76,-272.76,-44,566,-937,25.1,10.8,-7.7,24.9,11.3,-7.3,5.73,2.35,-21.2,29.8
2013-05-13 00:23:00,0.0,1.9237,0.0008,407.59,0.35,375.3,31.5,138.06,31.74,24.67,36.42,0.04,-272.76,-272.76,-44,566,-937,25.0,10.8,-7.8,25.0,11.2,-7.3,5.73,2.37,-21.2,29.8
2013-05-13 00:24:00,0.0,1.9235,0.0009,407.67,0.38,379.2,27.1,138.05,31.73,24.67,36.42,0.04,-272.76,-272.76,-44,566,-937,25.1,10.7,-7.8,25.0,11.2,-7.3,5.73,2.41,-21.2,29.8
2013-05-13 00:25:00,0.0,1.9236,0.0008,407.60,0.34,373.0,32.4,138.06,31.73,24.66,36.42,0.04,-272.76,-272.76,-44,566,-937,25.1,10.7,-7.8,25.0,11.1,-7.4,5.73,2.41,-21.1,29.8
2013-05-13 00:26:00,0.0,1.9233,0.0009,407.56,0.38,383.3,33.1,138.06,31.72,24.66,36.43,0.04,-272.76,-272.76,-44,566,-937,25.1,10.6,-7.9,25.0,11.1,-7.4,5.73,2.38,-21.1,29.8
2013-05-13 00:27:00,0.0,1.9235,0.0010,407.62,0.37,375.7,27.1,138.06,31.72,24.66,36.42,0.04,-272.76,-272.76,-44,566,-936,25.1,10.5,-8.0,25.0,10.9,-7.6,5.73,2.35,-21.1,29.8
2013-05-13 00:28:00,0.0,1.9232,0.0010,407.55,0.38,372.6,29.4,138.06,31.71,24.66,36.42,0.04,-272.76,-272.76,-44,566,-936,25.2,10.4,-8.1,25.0,10.9,-7.6,5.73,2.34,-21.1,29.8
2013-05-13 00:29:00,0.0,1.9235,0.0009,407.49,0.41,382.3,32.6,138.06,31.70,24.66,36.42,0.04,-272.76,-272.76,-44,566,-936,25.1,10.5,-8.0,25.0,10.9,-7.6,5.73,2.36,-21.1,29.8
2013-05-13 00:30:00,0.0,1.9232,0.0008,407.55,0.40,385.9,29.5,138.06,31.69,24.67,36.43,0.04,-272.76,-272.77,-44,566,-936,25.2,10.5,-8.0,25.1,11.0,-7.5,5.73,2.39,-21.1,29.8
2013-05-13 00:31:00,0.0,1.9231,0.0008,407.61,0.45,378.3,28.5,138.06,31.68,24.66,36.42,0.04,-272.76,-272.76,-44,567,-936,25.2,10.5,-8.0,25.1,10.9,-7.6,5.73,2.42,-21.1,29.8
2013-05-13 00:32:00,0.0,1.9233,0.0008,407.65,0.37,382.8,24.7,138.06,31.68,24.66,36.42,0.04,-272.76,-272.76,-44,567,-936,25.2,10.4,-8.1,25.1,10.8,-7.6,5.73,2.40,-21.1,29.8
2013-05-13 00:33:00,0.0,1.9231,0.0008,407.47,0.41,380.4,33.2,138.06,31.67,24.67,36.42,0.04,-272.76,-272.76,-44,567,-936,25.2,10.5,-8.0,25.1,10.9,-7.5,5.73,2.37,-21.0,29.8
2013-05-13 00:34:00,0.0,1.9233,0.0010,407.59,0.45,383.8,29.8,138.06,31.67,24.66,36.42,0.04,-272.76,-272.76,-44,567,-936,25.2,10.6,-7.9,25.1,11.0,-7.4,5.73,2.35,-21.0,29.8
2013-05-13 00:35:00,0.0,1.9235,0.0008,407.56,0.44,386.7,25.1,138.06,31.66,24.66,36.43,0.04,-272.76,-272.76,-44,567,-936,25.2,10.6,-7.8,25.1,11.0,-7.4,5.73,2.34,-21.0,29.8
2013-05-13 00:36:00,0.0,1.9236,0.0010,407.65,0.44,381.1,35.1,138.06,31.66,24.67,36.41,0.04,-272.76,-272.76,-44,567,-936,25.2,10.7,-7.7,25.1,11.1,-7.3,5.73,2.37,-21.0,29.9
2013-05-13 00:37:00,0.0,1.9231,0.0008,407.68,0.40,381.9,31.1,138.06,31.65,24.67,36.42,0.04,-272.76,-272.76,-44,567,-936,25.2,10.7,-7.7,25.1,11.1,-7.3,5.73,2.40,-21.0,29.9
2013-05-13 00:38:00,0.0,1.9234,0.0011,407.72,0.44,387.1,27.9,138.06,31.65,24.66,36.42,0.04,-272.76,-272.76,-44,567,-936,25.2,10.7,-7.7,25.2,11.1,-7.2,5.73,2.41,-21.0,29.9
2013-05-13 00:39:00,0.0,1.9232,0.0009,407.57,0.44,385.2,28.5,138.06,31.64,24.67,36.43,0.04,-272.76,-272.76,-44,567,-936,25.2,10.6,-7.8,25.2,11.0,-7.3,5.73,2.40,-21.0,29.9
2013-05-13 00:40:00,0.0,1.9230,0.0009,407.63,0.32,390.7,27.1,138.06,31.64,24.67,36.43,0.04,-272.76,-272.77,-44,567,-936,25.3,10.6,-7.8,25.2,11.0,-7.3,5.73,2.36,-21.0,29.9
2013-05-13 00:41:00,0.0,1.9231,0.0009,407.72,0.38,388.1,30.4,138.06,31.63,24.67,36.42,0.04,-272.76,-272.76,-44,567,-936,25.3,10.7,-7.7,25.2,11.1,-7.3,5.73,2.34,-21.0,29.9
2013-05-13 00:42:00,0.0,1.9230,0.0009,407.71,0.50,389.6,30.3,138.06,31.63,24.67,36.42,0.04,-272.76,-272.76,-44,567,-936,25.3,10.7,-7.7,25.2,11.1,-7.2,5.73,2.35,-21.0,29.9
2013-05-13 00:43:00,0.0,1.9231,0.0010,407.71,0.46,383.1,33.5,138.06,31.62,24.67,36.42,0.04,-272.76,-272.76,-44,568,-936,25.3,10.7,-7.7,25.2,11.1,-7.3,5.73,2.38,-21.0,29.9
2013-05-13 00:44:00,0.0,1.9236,0.0009,407.63,0.45,392.3,30.9,138.06,31.62,24.66,36.43,0.04,-272.76,-272.76,-45,567,-936,25.3,10.6,-7.7,25.2,11.0,-7.3,5.73,2.40,-21.0,29.9
2013-05-13 00:45:00,0.0,1.9232,0.0010,407.54,0.39,397.6,31.5,138.06,31.61,24.66,36.43,0.04,-272.76,-272.76,-45,568,-936,25.3,10.6,-7.7,25.2,11.1,-7.3,5.73,2.41,-20.9,29.9
2013-05-13 00:46:00,0.0,1.9232,0.0009,407.73,0.42,391.3,32.3,138.06,31.61,24.67,36.42,0.04,-272.76,-272.76,-45,568,-936,25.3,10.6,-7.8,25.2,11.0,-7.3,5.73,2.39,-20.9,29.9
2013-05-13 00:47:00,0.0,1.9232,0.0009,407.61,0.36,392.7,28.3,138.06,31.60,24.66,36.43,0.04,-272.76,-272.76,-45,568,-936,25.3,10.7,-7.7,25.2,11.1,-7.3,5.73,2.35,-20.9,30.0
2013-05-13 00:48:00,0.0,1.9235,0.0011,407.70,0.41,387.1,28.0,138.06,31.60,24.66,36.42,0.04,-272.76,-272.76,-45,568,-937,25.3,10.6,-7.7,25.2,11.0,-7.3,5.73,2.34,-20.9,30.0
2013-05-13 00:49:00,0.0,1.9231,0.0009,407.63,0.39,394.4,32.8,138.06,31.59,24.66,36.42,0.04,-272.76,-272.76,-45,568,-937,25.3,10.6,-7.8,25.3,11.0,-7.3,5.73,2.35,-20.9,30.0
2013-05-13 00:50:00,0.0,1.9234,0.0009,407.60,0.43,392.5,29.2,138.06,31.58,24.66,36.42,0.04,-272.76,-272.76,-45,568,-936,25.3,10.5,-7.8,25.3,10.9,-7.4,5.73,2.38,-20.9,30.0
2013-05-13 00:51:00,0.0,1.9234,0.0008,407.51,0.46,396.2,32.0,138.06,31.58,24.66,36.42,0.04,-272.76,-272.76,-45,568,-937,25.3,10.4,-8.0,25.3,10.8,-7.5,5.73,2.41,-20.9,30.0
2013-05-13 00:52:00,0.0,1.9234,0.0007,407.66,0.41,395.7,32.6,138.06,31.57,24.66,36.43,0.04,-272.76,-272.76,-45,568,-937,25.3,10.4,-8.0,25.3,10.8,-7.6,5.73,2.40,-20.9,30.0
2013-05-13 00:53:00,0.0,1.9234,0.0010,407.59,0.43,390.0,29.2,138.06,31.57,24.66,36.43,0.04,-272.76,-272.76,-45,568,-937,25.4,10.4,-8.0,25.3,10.8,-7.6,5.73,2.37,-20.9,30.0
2013-05-13 00:54:00,0.0,1.9232,0.0010,407.53,0.44,403.6,30.3,138.06,31.56,24.66,36.44,0.04,-272.76,-272.76,-45,568,-937,25.4,10.5,-7.8,25.3,10.9,-7.4,5.73,2.34,-20.9,30.0
2013-05-13 00:55:00,0.0,1.9234,0.0008,407.58,0.40,392.8,28.8,138.06,31.56,24.66,36.43,0.04,-272.76,-272.76,-45,568,-937,25.4,10.5,-7.9,25.3,10.8,-7.5,5.73,2.35,-20.8,30.0
2013-05-13 00:56:00,0.0,1.9231,0.0008,407.65,0.42,393.7,27.3,138.06,31.55,24.66,36.43,0.04,-272.76,-272.76,-45,568,-937,25.4,10.5,-7.8,25.3,10.9,-7.4,5.73,2.36,-20.9,30.0
2013-05-13 00:57:00,0.0,1.9233,0.0009,407.66,0.41,395.9,27.4,138.06,31.54,24.66,36.43,0.04,-272.76,-272.77,-45,568,-937,25.4,10.5,-7.8,25.3,10.9,-7.4,5.73,2.39,-20.9,30.0
2013-05-13 00:58:00,0.0,1.9234,0.0009,407.60,0.42,404.7,33.4,138.06,31.54,24.66,36.43,0.04,-272.76,-272.76,-45,568,-937,25.4,10.5,-7.8,25.3,10.9,-7.4,5.73,2.41,-20.8,30.0
2013-05-13 00:59:00,0.0,1.9233,0.0009,407.67,0.39,397.9,32.4,138.06,31.54,24.66,36.43,0.04,-272.76,-272.76,-45,568,-937,25.4,10.5,-7.8,25.3,10.9,-7.4,5.73,2.40,-20.8,30.0
2013-05-13 01:00:00,0.0,1.9233,0.0009,407.65,0.46,398.5,29.2,138.06,31.53,24.66,36.43,0.28,-270.66,-271.91,-45,569,-937,25.4,10.5,-7.8,25.3,10.8,-7.5,5.42,2.40,-25.6,30.0
2013-05-13 01:01:00,0.0,1.9234,0.0008,407.61,0.37,396.9,27.3,138.06,31.53,24.66,36.43,0.04,-272.76,-272.76,-45,568,-937,25.4,10.5,-7.7,25.3,10.9,-7.4,5.73,2.36,-20.8,30.0
2013-05-13 01:02:00,0.0,1.9233,0.0010,407.56,0.35,397.7,24.0,138.06,31.52,24.66,36.43,0.04,-272.76,-272.76,-45,569,-937,25.4,10.4,-7.9,25.3,10.9,-7.4,5.73,2.35,-20.8,30.0
2013-05-13 01:03:00,0.0,1.9232,0.0009,407.63,0.39,404.7,33.9,138.06,31.52,24.66,36.43,0.04,-272.76,-272.76,-45,569,-937,25.4,10.3,-8.0,25.3,10.7,-7.6,5.73,2.35,-20.8,30.0
2013-05-13 01:04:00,0.0,1.9232,0.0007,407.73,0.37,402.3,30.4,138.06,31.51,24.66,36.43,0.04,-272.76,-272.76,-45,569,-937,25.4,10.3,-8.1,25.3,10.7,-7.7,5.73,2.36,-20.8,30.0
2013-05-13 01:05:00,0.0,1.9230,0.0010,407.60,0.48,396.9,24.9,138.06,31.51,24.66,36.44,0.04,-272.76,-272.76,-45,569,-937,25.4,10.3,-8.1,25.3,10.7,-7.7,5.73,2.38,-20.8,30.0
2013-05-13 01:06:00,0.0,1.9230,0.0009,407.59,0.45,398.8,28.2,138.06,31.50,24.67,36.43,0.04,-272.76,-272.76,-45,569,-937,25.4,10.3,-8.0,25.3,10.7,-7.6,5.73,2.40,-20.8,30.0
2013-05-13 01:07:00,0.0,1.9227,0.0010,407.61,0.45,394.6,29.2,138.06,31.50,24.67,36.43,0.04,-272.76,-272.76,-45,569,-937,25.4,10.3,-8.1,25.3,10.6,-7.7,5.73,2.40,-20.8,30.0
2013-05-13 01:08:00,0.0,1.9230,0.0010,407.62,0.47,390.0,30.2,138.06,31.49,24.66,36.43,0.04,-272.76,-272.76,-45,569,-937,25.4,10.2,-8.2,25.3,10.6,-7.8,5.73,2.39,-20.8,30.0
2013-05-13 01:09:00,0.0,1.9232,0.0010,407.71,0.46,397.9,30.2,138.06,31.49,24.66,36.43,0.04,-272.76,-272.76,-45,569,-937,25.4,10.3,-8.0,25.3,10.6,-7.7,5.73,2.38,-20.8,30.0
2013-05-13 01:10:00,0.0,1.9228,0.0008,407.68,0.38,395.8,25.4,138.06,31.49,24.66,36.43,0.04,-272.76,-272.77,-45,569,-937,25.4,10.3,-8.0,25.3,10.7,-7.6,5.73,2.36,-20.8,30.0
2013-05-13 01:11:00,0.0,1.9232,0.0009,407.78,0.37,392.5,33.5,138.06,31.49,24.66,36.43,0.04,-272.76,-272.76,-45,569,-937,25.4,10.3,-8.0,25.4,10.7,-7.6,5.73,2.35,-20.8,30.0
2013-05-13 01:12:00,0.0,1.9229,0.0008,407.82,0.47,392.6,30.6,138.06,31.48,24.67,36.43,0.04,-272.76,-272.76,-45,569,-937,25.4,10.4,-8.0,25.4,10.7,-7.6,5.73,2.35,-20.8,30.0
2013-05-13 01:13:00,0.0,1.9231,0.0009,407.71,0.43,398.0,31.5,138.06,31.48,24.66,36.43,0.04,-272.76,-272.76,-45,569,-937,25.4,10.3,-8.0,25.4,10.7,-7.6,5.73,2.36,-20.8,30.0
2013-05-13 01:14:00,0.0,1.9228,0.0009,407.65,0.38,402.3,33.4,138.06,31.47,24.66,36.44,0.04,-272.76,-272.76,-45,569,-937,25.4,10.3,-8.0,25.4,10.7,-7.6,5.73,2.37,-20.8,30.0
2013-05-13 01:15:00,0.0,1.9230,0.0007,407.84,0.43,398.3,33.5,138.06,31.47,24.66,36.43,0.04,-272.76,-272.76,-45,569,-936,25.4,10.4,-7.9,25.4,10.8,-7.5,5.73,2.38,-20.8,30.0
2013-05-13 01:16:00,0.0,1.9229,0.0010,407.82,0.40,393.5,28.6,138.06,31.47,24.66,36.43,0.04,-272.76,-272.76,-45,569,-936,25.4,10.5,-7.8,25.4,10.8,-7.4,5.73,2.39,-20.9,30.0
2013-05-13 01:17:00,0.0,1.9229,0.0009,407.69,0.44,396.4,32.6,138.06,31.46,24.66,36.44,0.04,-272.76,-272.76,-45,569,-936,25.4,10.4,-7.8,25.4,10.8,-7.4,5.73,2.38,-20.9,30.0
2013-05-13 01:18:00,0.0,1.9232,0.0011,407.68,0.39,395.0,28.1,138.06,31.46,24.66,36.43,0.04,-272.76,-272.76,-45,569,-936,25.4,10.4,-7.9,25.3,10.8,-7.5,5.73,2.39,-20.9,30.0
2013-05-13 01:19:00,0.0,1.9225,0.0009,407.72,0.46,387.9,36.7,138.06,31.45,24.67,36.43,0.04,-272.76,-272.76,-45,569,-937,25.5,10.3,-8.1,25.3,10.7,-7.7,5.73,2.39,-20.9,30.0
2013-05-13 01:20:00,0.0,1.9227,0.0009,407.73,0.44,389.4,29.4,138.06,31.44,24.66,36.44,0.04,-272.76,-272.76,-45,569,-937,25.4,10.2,-8.1,25.4,10.6,-7.7,5.73,2.39,-20.9,30.0
2013-05-13 01:21:00,0.0,1.9225,0.0008,407.88,0.37,398.2,32.8,138.06,31.44,24.67,36.43,0.04,-272.76,-272.76,-45,569,-937,25.5,10.3,-8.0,25.4,10.7,-7.6,5.73,2.37,-20.9,30.0
2013-05-13 01:22:00,0.0,1.9227,0.0009,407.83,0.44,397.3,28.1,138.06,31.44,24.66,36.43,0.04,-272.76,-272.76,-45,570,-937,25.4,10.3,-8.0,25.4,10.7,-7.6,5.73,2.36,-20.8,30.0
2013-05-13 01:23:00,0.0,1.9229,0.0008,407.56,0.45,388.3,25.9,138.06,31.43,24.66,36.44,0.04,-272.76,-272.76,-45,569,-937,25.5,10.3,-8.0,25.4,10.7,-7.6,5.73,2.36,-20.8,30.0
2013-05-13 01:24:00,0.0,1.9231,0.0008,407.78,0.45,392.5,29.6,138.06,31.43,24.66,36.44,0.04,-272.76,-272.77,-45,569,-937,25.5,10.3,-8.0,25.4,10.7,-7.6,5.73,2.35,-20.9,30.0
2013-05-13 01:25:00,0.0,1.9230,0.0009,407.77,0.37,393.3,28.5,138.06,31.42,24.66,36.44,0.04,-272.76,-272.76,-45,569,-937,25.4,10.3,-8.0,25.4,10.7,-7.5,5.73,2.36,-20.9,30.1
2013-05-13 01:26:00,0.0,1.9228,0.0007,407.80,0.46,396.0,29.3,138.06,31.42,24.66,36.44,0.04,-272.76,-272.76,-45,569,-937,25.5,10.2,-8.1,25.4,10.6,-7.7,5.73,2.35,-20.8,30.0
2013-05-13 01:27:00,0.0,1.9226,0.0009,407.75,0.40,402.0,32.3,138.06,31.42,24.66,36.43,0.04,-272.77,-272.76,-45,570,-937,25.4,10.2,-8.1,25.4,10.6,-7.7,5.73,2.36,-20.8,30.0
2013-05-13 01:28:00,0.0,1.9229,0.0008,407.85,0.40,390.2,30.5,138.06,31.41,24.66,36.44,0.04,-272.76,-272.76,-45,569,-937,25.5,10.2,-8.2,25.4,10.5,-7.8,5.73,2.37,-20.9,30.0
2013-05-13 01:29:00,0.0,1.9227,0.0009,407.80,0.41,392.5,31.5,138.06,31.41,24.66,36.44,0.04,-272.76,-272.76,-45,569,-936,25.4,10.1,-8.2,25.4,10.5,-7.8,5.73,2.38,-20.8,30.0
2013-05-13 01:30:00,0.0,1.9225,0.0009,407.98,0.42,406.6,30.6,138.06,31.40,24.67,36.43,0.04,-272.76,-272.76,-45,569,-936,25.5,10.2,-8.2,25.4,10.6,-7.8,5.73,2.38,-20.8,30.0
2013-05-13 01:31:00,0.0,1.9223,0.0008,407.77,0.43,396.2,30.6,138.06,31.40,24.66,36.44,0.04,-272.76,-272.76,-45,570,-936,25.5,10.2,-8.2,25.4,10.5,-7.8,5.73,2.38,-20.8,30.0
2013-05-13 01:32:00,0.0,1.9228,0.0009,407.90,0.38,395.7,27.9,138.06,31.40,24.66,36.44,0.04,-272.76,-272.76,-45,570,-936,25.4,10.2,-8.1,25.4,10.5,-7.9,5.73,2.38,-20.8,30.0
2013-05-13 01:33:00,0.0,1.9224,0.0008,408.07,0.52,392.8,31.2,138.06,31.39,24.66,36.43,0.04,-272.76,-272.76,-45,570,-937,25.5,10.2,-8.1,25.4,10.6,-7.7,5.73,2.38,-20.9,30.0
2013-05-13 01:34:00,0.0,1.9227,0.0009,407.84,0.44,400.4,31.6,138.06,31.39,24.66,36.44,0.04,-272.76,-272.77,-45,570,-937,25.5,10.2,-8.1,25.4,10.6,-7.7,5.73,2.38,-20.8,30.0
2013-05-13 01:35:00,0.0,1.9221,0.0008,407.95,0.42,386.5,29.0,138.06,31.38,24.67,36.43,0.04,-272.76,-272.76,-45,570,-937,25.4,10.3,-8.1,25.4,10.6,-7.6,5.73,2.37,-20.9,30.0
2013-05-13 01:36:00,0.0,1.9224,0.0010,407.82,0.45,384.5,26.4,138.06,31.38,24.66,36.44,0.04,-272.76,-272.76,-45,570,-937,25.5,10.2,-8.1,25.4,10.6,-7.7,5.73,2.37,-20.9,30.0
2013-05-13 01:37:00,0.0,1.9223,0.0008,407.89,0.46,384.5,26.9,138.06,31.37,24.67,36.44,0.04,-272.76,-272.76,-45,570,-936,25.5,10.3,-8.1,25.4,10.6,-7.6,5.73,2.37,-20.9,30.0
2013-05-13 01:38:00,0.0,1.9224,0.0009,407.97,0.42,382.7,32.9,138.06,31.37,24.67,36.44,0.04,-272.76,-272.76,-45,570,-936,25.5,10.3,-8.0,25.4,10.6,-7.6,5.73,2.37,-20.9,30.0
2013-05-13 01:39:00,0.0,1.9222,0.0007,408.05,0.46,386.9,28.0,138.06,31.36,24.67,36.44,0.04,-272.76,-272.76,-45,570,-936,25.5,10.3,-8.0,25.4,10.7,-7.6,5.73,2.37,-20.9,30.0
2013-05-13 01:40:00,0.0,1.9225,0.0008,408.15,0.41,387.2,34.5,138.06,31.36,24.66,36.44,0.04,-272.76,-272.76,-45,570,-937,25.5,10.3,-8.1,25.4,10.6,-7.6,5.73,2.37,-20.9,30.0
2013-05-13 01:41:00,0.0,1.9222,0.0010,408.00,0.42,397.7,35.5,138.06,31.36,24.66,36.44,0.04,-272.76,-272.76,-45,570,-937,25.4,10.3,-8.1,25.4,10.6,-7.6,5.73,2.36,-20.9,30.0
2013-05-13 01:42:00,0.0,1.9221,0.0010,408.17,0.48,394.3,25.7,138.06,31.35,24.67,36.44,0.04,-272.76,-272.76,-45,570,-937,25.5,10.3,-8.0,25.4,10.7,-7.6,5.73,2.36,-20.9,30.0
2013-05-13 01:43:00,0.0,1.9224,0.0011,408.11,0.41,384.0,26.8,138.06,31.35,24.66,36.44,0.04,-272.76,-272.76,-45,570,-937,25.5,10.4,-7.9,25.4,10.7,-7.5,5.73,2.36,-20.9,30.0
2013-05-13 01:44:00,0.0,1.9225,0.0009,408.34,0.39,388.6,30.3,138.06,31.35,24.66,36.43,0.04,-272.76,-272.76,-45,570,-936,25.5,10.4,-7.9,25.4,10.8,-7.5,5.73,2.36,-20.9,30.0
2013-05-13 01:45:00,0.0,1.9227,0.0009,408.18,0.43,392.9,28.2,138.06,31.34,24.66,36.44,0.04,-272.76,-272.76,-45,570,-936,25.5,10.5,-7.8,25.4,10.9,-7.4,5.73,2.36,-20.9,30.0
2013-05-13 01:46:00,0.0,1.9221,0.0009,408.34,0.45,386.9,33.5,138.06,31.34,24.66,36.43,0.04,-272.76,-272.76,-45,570,-937,25.5,10.5,-7.7,25.4,10.9,-7.3,5.73,2.36,-20.9,30.0
2013-05-13 01:47:00,0.0,1.9222,0.0008,408.23,0.41,384.8,31.7,138.06,31.33,24.66,36.44,0.04,-272.76,-272.76,-45,570,-937,25.5,10.5,-7.8,25.4,10.8,-7.4,5.73,2.36,-20.9,30.0
2013-05-13 01:48:00,0.0,1.9224,0.0010,408.25,0.42,393.6,30.6,138.06,31.33,24.66,36.44,0.04,-272.76,-272.77,-45,570,-937,25.5,10.4,-7.8,25.4,10.8,-7.4,5.73,2.36,-20.9,30.0
2013-05-13 01:49:00,0.0,1.9218,0.0009,408.27,0.39,382.9,30.0,138.06,31.33,24.66,36.43,0.04,-272.76,-272.76,-45,570,-936,25.4,10.5,-7.8,25.4,10.8,-7.4,5.73,2.36,-20.9,30.0
2013-05-13 01:50:00,0.0,1.9224,0.0009,408.13,0.39,384.7,25.7,138.06,31.33,24.66,36.44,0.04,-272.76,-272.77,-45,570,-936,25.4,10.6,-7.7,25.4,11.0,-7.3,5.73,2.36,-20.9,30.0
2013-05-13 01:51:00,0.0,1.9224,0.0010,408.22,0.51,383.8,28.5,138.06,31.32,24.66,36.44,0.04,-272.76,-272.76,-45,570,-936,25.4,10.6,-7.6,25.4,11.0,-7.2,5.73,2.36,-20.9,30.0
2013-05-13 01:52:00,0.0,1.9218,0.0009,408.07,0.49,395.9,28.4,138.06,31.32,24.66,36.44,0.04,-272.76,-272.76,-45,570,-937,25.5,10.7,-7.5,25.4,11.1,-7.1,5.73,2.36,-20.9,30.0
2013-05-13 01:53:00,0.0,1.9218,0.0009,408.25,0.39,393.9,27.0,138.06,31.31,24.66,36.44,0.04,-272.76,-272.76,-45,570,-937,25.5,10.6,-7.6,25.4,11.0,-7.2,5.73,2.37,-20.9,30.0
2013-05-13 01:54:00,0.0,1.9218,0.0010,408.29,0.41,393.8,36.1,138.06,31.31,24.66,36.44,0.04,-272.76,-272.77,-45,570,-937,25.5,10.7,-7.5,25.4,11.1,-7.1,5.73,2.37,-20.9,30.0
2013-05-13 01:55:00,0.0,1.9221,0.0009,408.30,0.40,389.8,32.8,138.06,31.31,24.66,36.44,0.04,-272.76,-272.76,-45,570,-937,25.4,10.6,-7.6,25.4,11.0,-7.2,5.73,2.36,-20.9,30.0
2013-05-13 01:56:00,0.0,1.9223,0.0009,408.59,0.45,389.8,33.7,138.06,31.30,24.66,36.43,0.04,-272.76,-272.76,-45,570,-936,25.4,10.7,-7.5,25.4,11.1,-7.1,5.73,2.37,-20.9,30.0
2013-05-13 01:57:00,0.0,1.9220,0.0009,408.54,0.44,394.5,35.6,138.06,31.30,24.66,36.44,0.04,-272.76,-272.76,-45,570,-936,25.4,10.6,-7.7,25.4,11.0,-7.2,5.73,2.36,-20.9,30.0
2013-05-13 01:58:00,0.0,1.9220,0.0010,408.54,0.39,390.7,30.2,138.06,31.30,24.67,36.44,0.04,-272.76,-272.76,-45,570,-936,25.5,10.5,-7.7,25.4,10.9,-7.3,5.73,2.37,-20.9,30.0
2013-05-13 01:59:00,0.0,1.9221,0.0010,408.46,0.36,385.5,30.3,138.06,31.29,24.66,36.43,0.04,-272.76,-272.76,-45,570,-936,25.5,10.6,-7.7,25.4,10.9,-7.3,5.73,2.37,-20.9,30.0
2013-05-13 02:00:00,0.0,1.9220,0.0010,408.38,0.41,389.7,28.8,138.06,31.29,24.66,36.44,0.04,-272.76,-272.76,-45,570,-937,25.5,10.5,-7.7,25.4,10.9,-7.3,5.73,2.37,-20.9,30.0
2013-05-13 02:01:00,0.0,1.9219,0.0010,408.28,0.39,396.5,32.2,138.06,31.28,24.66,36.44,0.04,-272.76,-272.76,-45,570,-937,25.5,10.6,-7.7,25.4,11.0,-7.2,5.73,2.38,-20.9,30.0
2013-05-13 02:02:00,0.0,1.9219,0.0009,408.42,0.43,394.4,30.0,138.06,31.28,24.66,36.44,0.04,-272.76,-272.76,-45,570,-936,25.5,10.5,-7.8,25.4,10.8,-7.4,5.73,2.37,-20.9,30.0
2013-05-13 02:03:00,0.0,1.9222,0.0009,408.57,0.40,386.5,33.3,138.06,31.28,24.66,36.44,0.04,-272.76,-272.76,-45,570,-936,25.5,10.4,-7.9,25.4,10.8,-7.4,5.73,2.37,-20.9,30.0
2013-05-13 02:04:00,0.0,1.9224,0.0010,408.93,0.39,385.5,28.7,138.06,31.27,24.66,36.44,0.04,-272.76,-272.76,-45,570,-936,25.5,10.4,-7.9,25.4,10.7,-7.5,5.73,2.37,-20.9,30.0
2013-05-13 02:05:00,0.0,1.9219,0.0012,409.01,0.40,395.8,27.7,138.06,31.27,24.66,36.44,0.04,-272.76,-272.76,-45,570,-936,25.5,10.4,-7.9,25.4,10.7,-7.5,5.73,2.37,-20.9,30.0
2013-05-13 02:06:00,0.0,1.9221,0.0009,409.38,0.50,398.3,35.0,138.06,31.27,24.66,36.43,0.04,-272.76,-272.76,-45,570,-937,25.5,10.4,-7.9,25.4,10.7,-7.5,5.73,2.37,-20.9,30.0
2013-05-13 02:07:00,0.0,1.9215,0.0009,409.45,0.43,390.3,30.8,138.06,31.27,24.66,36.44,0.04,-272.76,-272.76,-45,570,-937,25.5,10.5,-7.7,25.4,10.9,-7.3,5.73,2.36,-20.9,30.0
2013-05-13 02:08:00,0.0,1.9221,0.0011,409.60,0.54,396.1,37.8,138.06,31.26,24.66,36.44,0.04,-272.76,-272.76,-45,570,-936,25.5,10.6,-7.6,25.4,11.0,-7.2,5.73,2.37,-20.9,30.0
2013-05-13 02:09:00,0.0,1.9221,0.0008,409.69,0.48,392.2,37.1,138.06,31.26,24.66,36.44,0.04,-272.76,-272.76,-45,570,-936,25.5,10.5,-7.7,25.4,10.9,-7.2,5.73,2.37,-20.9,30.0
2013-05-13 02:10:00,0.0,1.9222,0.0010,410.39,0.47,390.5,29.4,138.06,31.26,24.66,36.44,0.04,-272.76,-272.76,-45,570,-936,25.5,10.5,-7.7,25.4,10.9,-7.3,5.73,2.36,-20.9,30.0
2013-05-13 02:11:00,0.0,1.9221,0.0008,410.48,0.66,392.1,32.4,138.06,31.26,24.66,36.43,0.04,-272.76,-272.76,-45,570,-937,25.5,10.6,-7.6,25.5,11.0,-7.2,5.73,2.37,-20.8,30.0
2013-05-13 02:12:00,0.0,1.9215,0.0008,410.48,0.60,392.8,30.7,138.06,31.26,24.66,36.44,0.04,-272.76,-272.76,-45,570,-937,25.5,10.7,-7.5,25.5,11.1,-7.1,5.73,2.36,-20.8,30.0
2013-05-13 02:13:00,0.0,1.9217,0.0009,410.01,0.66,387.9,31.9,138.06,31.25,24.66,36.44,0.04,-272.76,-272.76,-45,570,-936,25.5,11.1,-7.0,25.5,11.5,-6.6,5.73,2.36,-20.8,30.0
2013-05-13 02:14:00,0.0,1.9221,0.0011,409.06,0.51,398.2,31.2,138.06,31.25,24.67,36.44,0.04,-272.76,-272.76,-45,570,-936,25.5,11.2,-6.9,25.5,11.6,-6.5,5.73,2.36,-20.8,30.0
2013-05-13 02:15:00,0.0,1.9221,0.0009,408.77,0.39,394.1,29.1,138.06,31.25,24.67,36.44,0.04,-272.76,-272.76,-45,570,-936,25.5,11.1,-7.0,25.5,11.5,-6.6,5.73,2.36,-20.8,30.0
2013-05-13 02:16:00,0.0,1.9230,0.0010,408.79,0.40,393.4,29.0,138.06,31.25,24.66,36.44,0.04,-272.76,-272.76,-45,570,-937,25.5,11.0,-7.1,25.5,11.4,-6.7,5.73,2.36,-20.8,30.0